380  
ASUS42 KCHS 260427  
RWRCHS  
 
REGIONAL WEATHER ROUNDUP  
NATIONAL WEATHER SERVICE CHARLESTON SC  
1200 AM EDT MON OCT 26 2020  
 
NOTE: "FAIR" INDICATES FEW OR NO CLOUDS BELOW 12,000 FEET WITH NO  
SIGNIFICANT WEATHER AND/OR S TO VISIBILITY
.  
 
NOT ALL STATIONS ARE QUALITY CONTROLLED. USE DATA WITH CAUTION,  
ESPECIALLY DEWPOINT OBSERVATIONS.  
 
SCZ027-030-031-034>040-042>050-260500-   
..SOUTHEAST SOUTH CAROLINA
 
 
 
CITY SKY/WX TMP DP RH WIND PRES REMARKS
 
N CHARLESTON MOCLDY 71 70 96 E5 30.01R  
WATERFRONT PRK N/A 72 70 93 NE7 29.85S  
MOUNT PLEASANT FAIR 68 68 100 CALM 30.01R  
JOHNS ISLAND CLOUDY 72 70 94 N5 30.01R  
PINOPOLIS N/A 70 68 94 NE9 29.93S  
MONCKS CORNER CLOUDY 68 68 100 NE3 30.02R  
SUMMERVILLE CLOUDY 72 70 94 CALM 30.01S  
BEAUFORT MCAS CLOUDY 73 71 93 N6 30.00S  
BEAUFORT ARPT CLOUDY 72 72 100 NE6 29.99F  
HILTON HEAD IS PTCLDY 72 70 94 NE3 30.00F  
WALTERBORO CLOUDY 70 68 94 E6 30.02F  
ALLENDALE CLOUDY 72 70 94 CALM 30.00F  
   
..SOUTHERN MIDLANDS AND PEE DEE
 
 
 
CITY SKY/WX TMP DP RH WIND PRES REMARKS
 
GEORGETOWN CLOUDY 64 64 100 NE7 30.03S FOG  
KINGSTREE CLOUDY 64 63 94 CALM 30.03F  
ORANGEBURG CLOUDY 68 66 93 NE6 30.04R  
BARNWELL CLOUDY 70 66 88 NE8 30.01F  
AIKEN CLOUDY 66 64 95 NE12 30.04S  
MANNING CLOUDY 64 63 94 N6 30.04R  
COLUMBIA CLOUDY 65 61 87 NE9 30.04S  
SUMTER CLOUDY 63 61 94 NE9 30.05S  
FLORENCE CLOUDY 61 59 93 N8 30.06S FOG  
MYRTLE BEACH CLOUDY 64 64 100 N6 30.02F FOG  
N MYRTLE BEACH CLOUDY 65 65 100 N7 30.02R  
 

 
 
GAZ063-065-086>088-099>101-113>116-118-119-134>141-150-260500-   
..SOUTHEAST GEORGIA
 
 
 
CITY SKY/WX TMP DP RH WIND PRES REMARKS
 
SAVANNAH ARPT MOCLDY 72 70 93 NE5 29.99S  
HUNTER AAF PTCLDY 70 67 90 CALM 29.96F FOG  
FORT STEWART CLEAR 68 68 100 CALM 29.96F  
STATESBORO PTCLDY 69 67 93 CALM 30.00S  
SYLVANIA CLOUDY 72 69 91 E5 30.01S  
CLAXTON FAIR 69 68 96 CALM 29.99S  
MILLEN CLOUDY 70 68 93 E5 30.01R  
METTER FAIR 70 68 94 NE6 29.99S  
REIDSVILLE NOT AVBL  
   
..CSRA, CENTRAL AND FAR SOUTHEAST GEORGIA
 
 
 
CITY SKY/WX TMP DP RH WIND PRES REMARKS
 
THOMSON CLOUDY 69 68 96 SE6 30.03R  
AUGUSTA-BUSH CLOUDY 72 67 84 E6 30.01R  
AUGUSTA-DANIEL CLOUDY 72 66 81 E7 30.02S  
SWAINSBORO FAIR 70 70 100 E5 30.01S  
VIDALIA CLEAR 70 64 83 CALM 30.00R  
EASTMAN FOG 63 63 99 CALM 30.02S VSB 1/2  
HAZLEHURST FAIR 67 66 97 CALM 29.99R  
ALMA CLEAR 66 64 93 CALM 29.99R  
WAYCROSS CLEAR 68 63 84 CALM 29.98F  
JESUP MOCLDY 68 64 88 CALM 29.98F FOG  
BAXLEY MOCLDY 64 64 100 CALM 29.99R  
BRUNSWICK FOG 67 66 98 CALM 29.98F VSB 3/4  
SAINT SIMONS PTCLDY 73 72 96 CALM 29.98S  
 

 
 
SCZ027-028-034-036>038-045-046-048>050-GAZ119-141-260500-   
..LAKE AND SUPPLEMENTAL COASTAL OBSERVATIONS
 
 
 
STATION/POSITION TIME TEMP WIND PRES WAVE SWELL
 
AIR SEA DIR/SP/G HT/PER HT/PER/DIR  
(UTC) (F) (DEG/KT/KT) (MB) (FT/S) (FT/S/D)  
WINYAH BAY 0345 68 360/ 5 1016.0R  
LAKE MURRAY 0350 64 40/ 2/ 7 N/A  
CHRLSTN HARBOR 0342 72 75 10/ 7/ 9 1016.2R  
ACE BASIN NERRS 0330 71 360/ 1 1016.0S  
FORT PULASKI 0342 74 75 130/ 1/ 2 1016.0R  
SAPELO ISLAND 0400 70 150/ 2 1015.0  
 

 
 
ANZ835-935-AMZ111-154-330-350-352-354-370-450-454-472-260500-   
..C-MAN AND BUOY OBSERVATIONS
 
 
 
STATION/POSITION TIME TEMP WIND PRES WAVE SWELL
 
AIR SEA DIR/SP/G HT/PER HT/PER/DIR  
(UTC) (F) (DEG/KT/KT) (MB) (FT/S) (FT/S/D)  
BUOY 41004 0410 77 81 40/ 12/ 17 1015.3  
BUOY 41008 0350 76 77 150/ 2/ 4 1015.1S 3/ 9 3/100/ 9  
FOLLY BEACH CMAN 0300 73 30/ 8/ 9 1016.4R  
CAPERS NEARSHORE 0408 72 75 50/ 12/ 16 1015.7S  
FRIPP NEARSHORE 0408 75 75 60/ 10/ 14 1015.6R  
 
 
STATION/POSITION TIME TEMP WIND PRES WAVE SWELL
 
AIR SEA DIR/SP/G HT/PER HT/PER/DIR  
(UTC) (F) (DEG/KT/KT) (MB) (FT/S) (FT/S/D)  
5E ST. MARYS GA 0330 77 77 N/A 3/13 2/ 90/13  
FRYING PAN BUOY 0410 74 81 40/ 14/ 16 1014.7  
BUOY 41025 0410 77 81 90/ 8/ 12 N/A  
CAPE LOOKOUT NC 0300 70 360/ 11/ 13 1015.9R  
BUOY 41002 NOT AVBL  
BUOY 41010 0410 79 81 210/ 14/ 17 1014.7  
ST AUGUSTINE FL 0400 79 80 60/ 4/ 5 1015.0F  
 

 
 
 
CLICK HERE TO GO TO PREVIOUS BULLETINS.

The Nexlab SC Page
The Nexlab GA Page Main Text Page